{"data":{"norad_id":66247,"epoch":"2026-09-20T06:02:09.466944Z","epoch_age_seconds":118136,"freshness":"FRESH","line1":"1 66247U 25245P   26263.25149846  .00010822  00000+0  35983-3 0  9994","line2":"2 66247  53.1579  98.8365 0000859  91.6377 268.4723 15.31714084 51069","mean_motion":15.31714084,"eccentricity":8.59e-5,"inclination_deg":53.1579,"raan_deg":98.8365,"arg_perigee_deg":91.6377,"mean_anomaly_deg":268.4723,"bstar":0.00035983,"rev_number":5106,"period_min":94.012323516639,"perigee_km":470.1096969487,"apogee_km":471.28632680374,"semimajor_km":6848.8350118762,"source":"CELESTRAK","updated_at":"2026-09-21T09:00:35.848473Z"}}